Content
SEND FEEDBACK

Daily
Averages
Monthly
Summary
United States of America

RALEIGH, NORTH CAROLINA


Home > North America > United States > North Carolina
Elevation: 114 meters     Latitude: 35 52N     Longitude: 078 47W

WEATHER
 
SELECT A DAY
Number of Records: 195,873;   Date Range: 1/1/95 - 10/21/14
 
SHARE

PRINT THIS DATA

[ ← Previous Day ]
WEATHER ALMANAC - 10 APRIL, 2013
[ Next Day → ]
[ °F ]   °C
Weather ElementAverageHighLow
Temperature23.2 °C29.4 °C (3:51 pm)16.1 °C (6:51 am)
Dewpoint14.3 °C16.1 °C (10:51 am)12.8 °C (1:51 am)
Humidity59.8 %87 % (6:51 am)37 % (4:51 pm)
Barometer1016.9 hPa1019.3 hPa (7:51 am)1013.9 hPa (7:51 pm)
Wind Speed18.7 km/h27.8 km/h (4:51 pm)
Wind Gust38.9 km/h (5:51 pm)
Weather ElementAverage
Visibility16.1 km
Wind DirectionSW (223.5 °)

Weather ElementTotal
Precipitation---
Cooling Degree Days4.4 (Base 18.3)
Growing Degree Days12.8 (Base 10)
Averaged from 23 records on 10 April, 2013
WEATHER CONDITIONS BREAKOUT
WIND DIRECTION BREAKOUT
WEATHER BY HOUR - 10 APRIL, 2013
[ °F ]   °C
Local TimeTemperatureDewpointHumidityBarometerVisibilityWind DirectionWind SpeedGust SpeedPrecipitationEventsConditions
1:51 AM19.4 °C12.8 °C66 %1017.9 hPa16.1 kmSSW (210°)14.8 km/hPartly Cloudy
2:51 AM18.9 °C13.3 °C70 %1017.6 hPa16.1 kmSW (220°)18.5 km/hScattered Clouds
3:51 AM17.8 °C13.3 °C75 %1017.9 hPa16.1 kmSW (220°)14.8 km/hMostly Cloudy
4:51 AM17.2 °C13.3 °C78 %1017.9 hPa16.1 kmSW (230°)14.8 km/hMostly Cloudy
5:51 AM16.7 °C13.9 °C84 %1018.6 hPa16.1 kmSW (230°)13 km/hMostly Cloudy
6:51 AM16.1 °C13.9 °C87 %1019 hPa16.1 kmSW (230°)13 km/hScattered Clouds
7:51 AM17.2 °C14.4 °C84 %1019.3 hPa16.1 kmWSW (240°)13 km/hScattered Clouds
8:51 AM19.4 °C15 °C76 %1019.3 hPa16.1 kmSW (230°)20.4 km/hPartly Cloudy
9:51 AM21.7 °C15.6 °C68 %1019.3 hPa16.1 kmSW (230°)22.2 km/hPartly Cloudy
10:51 AM23.9 °C16.1 °C62 %1019 hPa16.1 kmSW (230°)16.7 km/hPartly Cloudy
11:51 AM25.6 °C16.1 °C56 %1018.6 hPa16.1 kmSW (220°)18.5 km/hPartly Cloudy
12:51 PM27.2 °C15.6 °C49 %1017.9 hPa16.1 kmSW (230°)25.9 km/h37 km/hScattered Clouds
1:51 PM28.3 °C15 °C44 %1017.3 hPa16.1 kmSSW (210°)14.8 km/h27.8 km/hScattered Clouds
2:51 PM28.9 °C15 °C43 %1016.6 hPa16.1 kmSW (230°)22.2 km/h33.3 km/hClear
3:51 PM29.4 °C13.9 °C38 %1015.2 hPa16.1 kmSW (230°)24.1 km/h37 km/hClear
4:51 PM29.4 °C13.3 °C37 %1014.6 hPa16.1 kmSW (230°)27.8 km/h35.2 km/hClear
5:51 PM28.3 °C13.9 °C41 %1014.6 hPa16.1 kmSW (230°)22.2 km/h38.9 km/hClear
6:51 PM27.2 °C13.9 °C44 %1014.2 hPa16.1 kmSW (220°)18.5 km/hClear
7:51 PM26.1 °C13.9 °C47 %1013.9 hPa16.1 kmSW (220°)20.4 km/hClear
8:51 PM25 °C13.9 °C50 %1014.6 hPa16.1 kmSSW (210°)20.4 km/h31.5 km/hClear
9:51 PM23.9 °C13.9 °C53 %1014.6 hPa16.1 kmSSW (210°)18.5 km/hClear
10:51 PM23 °C14 °C57 %1014.6 hPa16.1 kmSW (220°)18.5 km/hClear
11:51 PM21.7 °C15 °C66 %1014.6 hPa16.1 kmSSW (210°)16.7 km/hClear
Hourly data recorded from KRDU, located 0 kilometers away from Raleigh, North Carolina







STORIES FROM OUR PARTNERS